Regional Weather Roundup
Issued by NWS

Home | Current Version | Previous Version | Graphics & Text | Print | Product List | Glossary On
Versions: 1 2 3 4 5 6 7 8 9 10 11 12 13 14 15 16 17 18 19 20 21 22 23 24 25 26 27 28 29 30 31 32 33 34 35 36 37 38 39 40 41 42 43 44 45 46 47 48 49 50
000
ASUS45 KPSR 251910
RWRAZ

ARIZONA REGIONAL HOURLY WEATHER ROUNDUP
NATIONAL WEATHER SERVICE PHOENIX AZ
1200 PM MST SUN JAN 25 2015

NOTE: FAIR INDICATES FEW OR NO CLOUDS BELOW 12,000 FEET WITH NO
SIGNIFICANT WEATHER AND/OR OBSTRUCTIONS TO VISIBILITY.

AZZ001>003-036-252000-
NORTHWEST ARIZONA

CITY           SKY/WX    TMP DP  RH WIND       PRES   REMARKS
BULLHEAD CITY  SUNNY     68  34  28 N33G44    30.14F
KINGMAN        SUNNY     61  23  23 N10       30.25F
$$

AZZ004>008-015-016-018-252000-
NORTH CENTRAL ARIZONA

CITY           SKY/WX    TMP DP  RH WIND       PRES   REMARKS
GRAND CANYON   SUNNY     51  22  31 NE16G23   30.36S
PRESCOTT       SUNNY     56  18  22 N6        30.26F
FLAGSTAFF      SUNNY     51  21  30 E16       30.34F
PAYSON         SUNNY     61  19  20 CALM      30.25F
$$

AZZ009>014-017-252000-
NORTHEAST ARIZONA

CITY           SKY/WX    TMP DP  RH WIND       PRES   REMARKS
WINSLOW        SUNNY     47  23  38 W5        30.35F
SAINT JOHNS    SUNNY     45  20  36 VRB3      30.32F
WINDOW ROCK    SUNNY     48  24  39 S6        30.32F
SHOW LOW       SUNNY     43  18  36 NE9       30.35F
$$

AZZ023-252000-
GREATER PHOENIX AREA

CITY           SKY/WX    TMP DP  RH WIND       PRES   REMARKS
PHOENIX        PTSUNNY   71  21  15 E12       30.09F
BUCKEYE          N/A     68  19  15 E12       30.11F
GLENDALE       MOSUNNY   66  27  22 SE7       30.12F
LUKE AFB       NOT AVBL
DEER VALLEY    SUNNY     69  18  14 CALM      30.10F
SCOTTSDALE     SUNNY     69  22  16 SW3       30.12F
MESA-FALCON    MOSUNNY   68  25  19 S12       30.10F
MESA-GATEWAY   MOSUNNY   64  23  20 CALM      30.13S
CHANDLER       PTSUNNY   63  25  23 VRB5      30.12S
$$

AZZ027-028-252000-
SOUTHWEST MARICOPA COUNTY AND PINAL COUNTY

CITY           SKY/WX    TMP DP  RH WIND       PRES   REMARKS
CASA GRANDE    PTSUNNY   68  21  17 NE14      30.10F
GILA BEND      FAIR      69  17  14 E10       30.08F
$$

AZZ503-504-507>509-252000-
SOUTHEAST ARIZONA

CITY           SKY/WX    TMP DP  RH WIND       PRES   REMARKS
TUCSON         CLOUDY    66   6   9 E12       30.14S
DAVIS-MONTHAN  CLOUDY    65   8  10 S10       30.11F
RYAN FIELD     SUNNY     66  12  12 E10       30.12F
NOGALES        CLOUDY    63  13  14 S6        30.14F
SIERRA VISTA   CLOUDY    56   7  14 E8        30.20F
DOUGLAS        PTSUNNY   60  15  17 CALM      30.20F
SAFFORD        MOSUNNY   53  20  27 S8        30.23F
$$

AZZ020-021-025-026-031-252000-
SOUTHWEST ARIZONA

CITY           SKY/WX    TMP DP  RH WIND       PRES   REMARKS
YUMA           CLOUDY    69  29  22 NE5       30.09S
$$

CAZ031-033-041-043-047-048-061-252000-
SOUTHERN CALIFORNIA

CITY           SKY/WX    TMP DP  RH WIND       PRES   REMARKS
DOWNTOWN L.A.  SUNNY     76  24  14 CALM      30.03S
L.A. AIRPORT   MOSUNNY   75  27  17 CALM      30.04S
SAN DIEGO      PTSUNNY   71  37  28 CALM      30.03F
BURBANK        SUNNY     74  25  16 SE9       30.04F
ONTARIO        MOSUNNY   78  28  16 NW6       30.04F
RIVERSIDE      SUNNY     78  25  14 VRB6      30.06F
PALM SPRINGS   MOSUNNY   79  23  12 NW7       30.13F
EL CENTRO NAS  MOSUNNY   74  24  15 SW7       30.10F
IMPERIAL       MOSUNNY   74  29  19 W7        30.09F
BLYTHE         SUNNY     68  34  28 E6        30.12F
NEEDLES        SUNNY     73  30  20 N28G36    30.14F
$$

NVZ020-UTZ003-252000-
SOUTHERN NEVADA-UTAH

CITY           SKY/WX    TMP DP  RH WIND       PRES   REMARKS
LAS VEGAS      SUNNY     64  30  27 CALM      30.24F
SALT LAKE CITY MOSUNNY   47  28  47 CALM      30.47S
$$

NMZ009-TXZ055-252000-
NEW MEXICO-WEST TEXAS

CITY           SKY/WX    TMP DP  RH WIND       PRES   REMARKS
ALBUQUERQUE    MOSUNNY   45  20  36 W3        30.31F
EL PASO        PTSUNNY   55  24  30 NE5       30.27F
$$


........................KEY........................
SKY/WX - SKY CONDITION/WEATHER
TMP    - TEMPERATURE IN FAHRENHEIT
DP     - DEW POINT IN FAHRENHEIT
RH     - RELATIVE HUMIDITY IN PERCENT
WIND   - DIRECTION AND SPEED IN MILES PER HOUR (MPH)
VRB    - VARIABLE WIND DIRECTION
PRES   - MEAN SEA LEVEL PRESSURE IN INCHES OF MERCURY
         F - FALLING PRESSURE   R - RISING PRESSURE
         S - STEADY PRESSURE
VSB    - VISIBILITY IN MILES
HX     - HEAT INDEX IN FAHRENHEIT
WCI    - WIND CHILL INDEX IN FAHRENHEIT
TC     - TEMPERATURE IN CELSIUS WHICH IS ALSO KNOWN AS
         TEMPERATURE IN CENTIGRADE
AFB    - AIR FORCE BASE
         LUKE AFB IS LUKE AIR FORCE BASE
         DAVIS-MONTHAN IS DAVIS-MONTHAN AIR FORCE BASE
NAS    - NAVAL AIR STATION
         EL CENTRO NAS IS EL CENTRO NAVAL AIR STATION
N/A    - NOT AVAILABLE



USA.gov is the U.S. government's official web portal to all federal, state and local government web resources and services.